Location: Invercargill
(46.4000°S, 168.3500°E)
Time: 16:47:40
(UTC+13:00)

ADEOS Rocket - Pass Details

Date: 24 January 2019
Orbit: 859 x 1307 km, 98.7° (Epoch: 19 February)

Event Time Altitude Azimuth Distance (km) Brightness Sun altitude
Exits shadow 23:05:50 - 358° (N) 2,721 4.9 -13.7°
Reaches altitude 10° 23:06:16 10° 356° (N) 2,552 4.8 -13.7°
Maximum altitude 23:11:44 52° 280° (W) 1,074 3.4 -14.3°
Drops below altitude 10° 23:17:09 10° 203° (SSW) 2,539 6.4 -14.9°
Sets 23:19:38 0° 198° (SSW) 3,501 7.3 -15.2°
